Location: Lansingburgh
(42.7845°N, 73.6696°W)
Time: 04:13:26
(UTC+00:00)

DELTA 2 R/B (1) - Pass Details

Date: 24 January 2020
Orbit: 791 x 802 km, 39.6° (Epoch: 17 February)

Event Time Altitude Azimuth Distance (km) Brightness Sun altitude
Rises 23:09:22 0° 266° (W) 3,290 8.6 -13.3°
Reaches altitude 10° 23:11:52 10° 264° (W) 2,362 7.5 -13.8°
Maximum altitude 23:17:22 63° 184° (S) 885 3.9 -14.8°
Enters shadow 23:21:19 19° 108° (ESE) 1,804 4.9 -15.5°
